DW9313 Weather Reports


Display with metric or nautical units.
time (UTC)temp
F
wind
direction
speed
MPH
gust
MPH
rain 1hr
in
rain 24hr
in
rain mn
in
humidity
%
barometer
mb
20180923012303 50 319 5.0 8.0 0.00 0.20 0.00 94 1017.7
20180923011804 50 324 5.0 12.0 0.00 0.20 0.00 94 1017.7
20180923011304 50 324 5.0 8.0 0.00 0.20 0.00 94 1017.6
20180923010805 50 325 5.0 12.0 0.00 0.20 0.00 94 1017.5
20180923010304 50 322 5.0 9.0 0.00 0.20 0.00 93 1017.5
20180923005804 50 324 5.0 12.0 0.00 0.20 0.00 94 1017.5
20180923005304 50 322 5.0 8.0 0.00 0.20 0.00 94 1017.3
20180923004804 50 319 3.0 7.0 0.00 0.20 0.00 93 1017.3
20180923004304 50 318 3.0 8.0 0.00 0.20 0.00 93 1017.3
20180923003804 50 321 3.0 8.0 0.00 0.20 0.00 93 1017.4
20180923003304 50 320 3.0 8.0 0.00 0.20 0.00 93 1017.3
20180923002804 50 318 6.0 9.0 0.00 0.20 0.00 92 1017.4
20180923002304 50 317 6.0 12.0 0.00 0.20 0.00 92 1017.4
20180923001804 50 318 5.0 8.0 0.00 0.20 0.00 92 1017.4
20180923001304 50 315 5.0 12.0 0.00 0.20 0.00 92 1017.2
20180923000804 50 320 5.0 8.0 0.00 0.20 0.00 92 1017.3
20180923000304 50 321 5.0 8.0 0.00 0.20 0.00 91 1017.2
20180922235742 50 316 4.0 8.0 0.00 0.20 0.00 91 1017.0
20180922235242 50 316 4.0 8.0 0.00 0.20 0.00 91 1017.0
20180922234742 50 322 3.0 8.0 0.00 0.20 0.00 91 1017.0
20180922234243 50 318 4.0 7.0 0.00 0.20 0.00 91 1017.1
20180922233743 50 315 3.0 6.0 0.00 0.20 0.00 91 1017.1
20180922233242 50 318 5.0 9.0 0.00 0.20 0.00 91 1017.0
20180922232742 50 327 4.0 8.0 0.00 0.20 0.00 92 1016.9
20180922232243 50 319 3.0 7.0 0.00 0.20 0.00 91 1016.9
20180922231743 50 326 4.0 8.0 0.00 0.20 0.00 91 1016.9
20180922231243 50 317 3.0 7.0 0.00 0.20 0.00 91 1016.9
20180922230805 51 314 3.0 7.0 0.00 0.20 0.00 91 1016.6
20180922230242 51 315 3.0 8.0 0.00 0.20 0.00 91 1016.8
20180922225743 51 313 2.0 6.0 0.00 0.20 0.20 91 1017.0
20180922225242 51 314 2.0 6.0 0.00 0.20 0.20 91 1017.0
20180922224742 51 310 2.0 7.0 0.00 0.20 0.20 92 1017.0
20180922224243 51 308 3.0 6.0 0.00 0.20 0.20 91 1017.0
20180922223743 51 309 2.0 6.0 0.00 0.20 0.20 92 1016.8
20180922223243 51 310 2.0 6.0 0.00 0.20 0.20 92 1016.9
20180922222743 51 313 3.0 6.0 0.00 0.20 0.20 92 1016.7
20180922222243 51 317 3.0 7.0 0.00 0.20 0.20 91 1016.7
20180922221743 51 322 2.0 6.0 0.00 0.20 0.20 91 1016.7
20180922221243 51 312 2.0 5.0 0.00 0.20 0.20 90 1017.0
20180922220743 51 317 2.0 6.0 0.00 0.20 0.20 89 1017.0
20180922220243 51 310 0.0 5.0 0.00 0.20 0.20 89 1016.8
20180922215743 51 339 1.0 8.0 0.00 0.20 0.20 89 1016.8
20180922215244 51 326 2.0 9.0 0.00 0.20 0.20 89 1016.8
20180922214743 51 103 2.0 8.0 0.00 0.20 0.20 89 1016.7
20180922214243 52 51 3.0 8.0 0.00 0.20 0.20 89 1016.7
20180922213743 52 87 2.0 7.0 0.00 0.20 0.20 89 1016.7
20180922213243 52 93 2.0 7.0 0.00 0.20 0.20 89 1016.8
20180922212744 52 68 2.0 7.0 0.00 0.20 0.20 89 1016.8
20180922212243 52 90 2.0 8.0 0.00 0.20 0.20 89 1016.7
20180922211743 52 339 2.0 7.0 0.00 0.20 0.20 89 1016.6
20180922211244 52 266 3.0 8.0 0.00 0.20 0.20 90 1016.6
20180922210744 52 51 1.0 6.0 0.00 0.20 0.20 90 1016.4
20180922210244 52 108 1.0 6.0 0.00 0.20 0.20 90 1016.6
20180922205743 52 68 1.0 6.0 0.00 0.20 0.20 90 1016.8
20180922205244 52 78 2.0 8.0 0.00 0.20 0.20 89 1016.7
20180922204744 52 90 2.0 8.0 0.00 0.20 0.20 90 1016.9
20180922204244 52 300 2.0 7.0 0.00 0.20 0.20 90 1016.7
20180922203744 52 343 2.0 5.0 0.00 0.20 0.20 90 1016.7
20180922203243 52 138 1.0 5.0 0.00 0.20 0.20 90 1016.5
20180922202743 52 325 1.0 5.0 0.00 0.20 0.20 91 1016.4
20180922202244 52 11 2.0 6.0 0.00 0.20 0.20 91 1016.4
20180922201744 52 338 1.0 6.0 0.00 0.20 0.20 90 1016.4
20180922201244 52 326 1.0 7.0 0.00 0.20 0.20 90 1016.4
20180922200744 52 327 2.0 7.0 0.00 0.20 0.20 90 1016.3
20180922200244 52 331 2.0 6.0 0.00 0.20 0.20 90 1016.2
20180922195744 52 315 2.0 6.0 0.00 0.20 0.20 90 1016.2
20180922195244 52 325 3.0 8.0 0.00 0.20 0.20 89 1016.3
20180922194745 52 324 2.0 8.0 0.00 0.20 0.20 90 1016.4
20180922194244 52 321 3.0 7.0 0.00 0.20 0.20 90 1016.3
20180922193745 52 322 2.0 6.0 0.00 0.20 0.20 90 1016.1
20180922193244 52 338 3.0 7.0 0.00 0.20 0.20 90 1015.9
20180922192744 52 71 1.0 6.0 0.00 0.20 0.20 90 1015.8
20180922192244 52 286 1.0 6.0 0.00 0.20 0.20 90 1015.7
20180922191744 52 346 2.0 7.0 0.00 0.20 0.20 90 1015.6
20180922191245 52 51 1.0 6.0 0.00 0.20 0.20 90 1015.6
20180922190744 52 35 1.0 8.0 0.00 0.20 0.20 90 1015.1
20180922190245 52 56 2.0 6.0 0.00 0.20 0.20 90 1015.0
20180922185745 52 189 1.0 6.0 0.00 0.20 0.20 90 1015.0
20180922185249 52 71 2.0 7.0 0.00 0.20 0.20 90 1015.0
20180922184745 52 153 2.0 6.0 0.00 0.20 0.20 90 1015.1
20180922184245 52 78 1.0 8.0 0.00 0.20 0.20 90 1015.0
20180922183746 52 84 2.0 8.0 0.00 0.20 0.20 90 1015.0
20180922183245 52 78 2.0 7.0 0.00 0.20 0.20 90 1014.9
20180922182745 52 87 3.0 8.0 0.00 0.20 0.20 90 1014.9
20180922182244 52 64 2.0 8.0 0.00 0.20 0.20 90 1015.0
20180922181745 53 69 1.0 6.0 0.00 0.20 0.20 90 1014.9
20180922181245 53 63 1.0 6.0 0.00 0.20 0.20 90 1014.6
20180922180745 53 93 2.0 6.0 0.00 0.20 0.20 90 1014.5
20180922180245 53 58 3.0 9.0 0.00 0.20 0.20 90 1014.3
20180922175745 53 67 3.0 7.0 0.00 0.20 0.20 90 1014.2
20180922175245 53 57 2.0 8.0 0.00 0.20 0.20 90 1014.5
20180922174746 53 65 3.0 8.0 0.00 0.20 0.20 89 1014.5
20180922174245 53 64 1.0 6.0 0.00 0.20 0.20 90 1014.3
20180922173746 53 82 2.0 8.0 0.00 0.20 0.20 89 1014.4
20180922173246 53 81 3.0 8.0 0.00 0.20 0.20 88 1014.3
20180922172746 53 68 4.0 9.0 0.00 0.20 0.20 88 1014.2
20180922172245 53 76 3.0 9.0 0.00 0.20 0.20 89 1014.4
20180922171746 53 79 4.0 12.0 0.00 0.20 0.20 89 1014.2
20180922171246 53 77 6.0 14.0 0.00 0.20 0.20 89 1014.3
20180922170745 53 86 5.0 9.0 0.00 0.20 0.20 90 1014.3
20180922170245 53 74 5.0 9.0 0.00 0.20 0.20 90 1014.4
20180922165746 53 81 3.0 7.0 0.00 0.20 0.20 90 1014.4
20180922165245 53 52 5.0 8.0 0.00 0.20 0.20 90 1014.4
20180922164745 53 71 5.0 12.0 0.00 0.20 0.20 92 1014.3
20180922164245 53 84 2.0 9.0 0.00 0.20 0.20 92 1014.3
20180922163746 53 84 4.0 12.0 0.00 0.20 0.20 92 1014.3
20180922163246 52 68 7.0 13.0 0.00 0.20 0.20 91 1014.1
20180922162745 52 78 3.0 8.0 0.00 0.20 0.20 92 1014.2
20180922162245 52 56 5.0 14.0 0.00 0.20 0.20 92 1014.1
20180922161746 52 84 8.0 16.0 0.00 0.20 0.20 91 1014.1
20180922161246 52 91 6.0 12.0 0.00 0.20 0.20 93 1014.2
20180922160746 52 81 4.0 9.0 0.00 0.20 0.20 93 1014.2
20180922160246 52 84 3.0 9.0 0.00 0.20 0.20 94 1014.3
20180922155747 52 62 3.0 9.0 0.00 0.20 0.20 94 1014.1
20180922155246 52 77 6.0 12.0 0.00 0.20 0.20 94 1014.0
20180922154746 52 64 5.0 14.0 0.00 0.20 0.20 94 1014.0
20180922154247 52 80 6.0 14.0 0.00 0.20 0.20 93 1014.0
20180922153746 53 77 4.0 9.0 0.00 0.20 0.20 92 1014.0
20180922153246 53 83 4.0 12.0 0.00 0.20 0.20 92 1014.0
20180922152747 53 74 4.0 12.0 0.00 0.20 0.20 92 1014.1
20180922152246 53 78 2.0 9.0 0.00 0.20 0.20 91 1014.2
20180922151746 53 68 3.0 9.0 0.00 0.20 0.20 91 1014.2
20180922151246 52 71 5.0 15.0 0.00 0.20 0.20 92 1014.2
20180922150747 52 74 3.0 13.0 0.00 0.20 0.20 92 1014.3
20180922150246 52 76 10.0 16.0 0.00 0.20 0.20 91 1014.5
20180922145746 52 84 6.0 14.0 0.00 0.20 0.20 91 1014.6
20180922145247 53 72 5.0 14.0 0.00 0.20 0.20 91 1014.6
20180922144746 53 67 5.0 9.0 0.00 0.20 0.20 91 1014.5
20180922144247 52 74 5.0 12.0 0.00 0.20 0.20 92 1014.5
20180922143747 52 70 7.0 16.0 0.00 0.20 0.20 91 1014.4
20180922143246 52 84 7.0 14.0 0.00 0.20 0.20 92 1014.5
20180922142747 52 68 6.0 14.0 0.00 0.20 0.20 92 1014.5
20180922142246 52 75 8.0 15.0 0.00 0.20 0.20 91 1014.6
20180922141747 52 67 5.0 12.0 0.00 0.20 0.20 92 1014.7
20180922141247 52 71 4.0 8.0 0.00 0.20 0.20 92 1014.7
20180922140747 52 85 3.0 14.0 0.00 0.20 0.20 92 1014.7
20180922140247 52 77 5.0 14.0 0.00 0.20 0.20 93 1014.6
20180922135746 52 78 6.0 14.0 0.00 0.20 0.20 92 1014.6
20180922135247 52 82 5.0 13.0 0.00 0.20 0.20 93 1014.5
20180922134747 52 74 5.0 12.0 0.00 0.20 0.20 93 1014.5
20180922134247 52 85 6.0 12.0 0.00 0.20 0.20 94 1014.6
20180922133747 52 78 9.0 13.0 0.00 0.20 0.20 93 1014.7
20180922133247 52 80 6.0 13.0 0.00 0.20 0.20 92 1014.8
20180922132747 52 61 4.0 13.0 0.00 0.20 0.20 93 1014.5
20180922132248 52 69 7.0 14.0 0.00 0.20 0.20 93 1014.5
20180922131747 52 71 5.0 12.0 0.00 0.20 0.20 93 1014.9
20180922131248 52 87 5.0 13.0 0.00 0.20 0.20 93 1014.9
20180922130747 52 89 7.0 13.0 0.00 0.20 0.20 94 1014.5
20180922130248 52 70 6.0 12.0 0.00 0.20 0.20 94 1014.6
20180922125748 51 75 7.0 14.0 0.00 0.20 0.20 93 1014.5
20180922125248 51 79 7.0 16.0 0.00 0.20 0.20 93 1014.3
20180922124748 51 82 12.0 20.0 0.00 0.20 0.20 93 1014.2
20180922124248 51 94 7.0 15.0 0.00 0.20 0.20 94 1014.5
20180922123747 51 80 9.0 14.0 0.00 0.20 0.20 94 1014.8
20180922123248 51 83 9.0 14.0 0.00 0.20 0.20 95 1014.9
20180922122748 51 85 7.0 14.0 0.01 0.20 0.20 95 1015.0
20180922122248 51 83 6.0 14.0 0.01 0.20 0.20 96 1015.0
20180922121748 51 75 5.0 14.0 0.01 0.20 0.20 96 1015.1
20180922121247 51 84 9.0 14.0 0.01 0.20 0.20 96 1015.3
20180922120748 51 78 7.0 14.0 0.01 0.20 0.20 96 1015.1
20180922120248 51 82 9.0 14.0 0.02 0.20 0.20 96 1015.1
20180922115748 51 93 7.0 13.0 0.02 0.20 0.20 97 1015.1
20180922115248 51 82 7.0 15.0 0.03 0.20 0.20 96 1015.3
20180922114748 51 78 5.0 8.0 0.03 0.20 0.20 98 1015.3
20180922114248 51 85 5.0 14.0 0.03 0.20 0.20 97 1015.4
20180922113748 51 79 5.0 9.0 0.03 0.20 0.20 98 1015.4
20180922113249 51 85 7.0 12.0 0.03 0.20 0.20 97 1015.4
20180922112749 51 92 6.0 12.0 0.03 0.19 0.19 97 1015.3
20180922112248 51 81 3.0 9.0 0.03 0.19 0.19 97 1015.6
20180922111748 51 71 3.0 9.0 0.04 0.19 0.19 97 1015.6
20180922111249 51 69 5.0 12.0 0.04 0.19 0.19 97 1015.8
20180922110748 50 81 5.0 12.0 0.05 0.19 0.19 96 1015.8
20180922110248 50 82 6.0 9.0 0.04 0.18 0.18 96 1015.6
20180922105749 50 90 3.0 12.0 0.04 0.18 0.18 95 1015.9
20180922105249 50 79 5.0 9.0 0.03 0.17 0.17 95 1015.9
20180922104748 50 82 5.0 8.0 0.03 0.17 0.17 95 1016.0
20180922104249 50 75 4.0 8.0 0.04 0.17 0.17 95 1015.9
20180922103749 50 93 6.0 9.0 0.04 0.17 0.17 94 1016.0
20180922103249 50 87 6.0 12.0 0.04 0.17 0.17 94 1016.1
20180922102749 50 76 4.0 8.0 0.04 0.16 0.16 94 1016.3
20180922102249 50 65 1.0 6.0 0.04 0.16 0.16 94 1016.6
20180922101748 50 86 2.0 6.0 0.04 0.15 0.15 94 1016.6
20180922101250 50 63 2.0 6.0 0.04 0.15 0.15 94 1016.6
20180922100749 50 91 4.0 8.0 0.04 0.14 0.14 94 1016.3
20180922100250 50 112 3.0 7.0 0.04 0.14 0.14 94 1016.4
20180922095750 50 101 3.0 7.0 0.04 0.14 0.14 93 1016.5
20180922095249 50 119 2.0 6.0 0.05 0.14 0.14 94 1016.8
20180922094749 50 102 3.0 8.0 0.05 0.14 0.14 94 1016.8
20180922094249 50 119 1.0 6.0 0.04 0.13 0.13 93 1017.1
20180922093750 50 88 2.0 6.0 0.04 0.13 0.13 93 1017.3
20180922093249 50 128 1.0 6.0 0.05 0.13 0.13 93 1017.3
20180922092749 50 90 2.0 6.0 0.04 0.12 0.12 93 1017.1
20180922092249 50 121 3.0 6.0 0.04 0.12 0.12 94 1017.0
20180922091750 50 94 2.0 6.0 0.04 0.11 0.11 93 1017.1
20180922091250 50 138 2.0 5.0 0.05 0.19 0.11 93 1017.3
20180922090749 50 143 1.0 2.0 0.04 0.18 0.10 93 1017.5
20180922090249 50 145 0.0 0.0 0.05 0.18 0.10 92 1017.6
20180922085749 50 145 0.0 0.0 0.05 0.18 0.10 92 1017.7
20180922085249 50 145 0.0 0.0 0.05 0.17 0.09 92 1017.6
20180922084750 50 145 0.0 0.0 0.05 0.17 0.09 93 1017.7
20180922084250 50 145 0.0 0.0 0.06 0.17 0.09 93 1017.5
20180922083750 50 145 0.0 0.0 0.06 0.17 0.09 93 1017.4
20180922083249 50 145 0.0 0.0 0.05 0.16 0.08 93 1017.3
20180922082750 50 145 0.0 0.0 0.06 0.16 0.08 94 1017.1
20180922082250 50 145 0.0 0.0 0.06 0.16 0.08 94 1017.1
20180922081750 50 214 0.0 0.0 0.05 0.15 0.07 94 1017.1
20180922081251 50 214 0.0 0.0 0.05 0.14 0.06 93 1017.1
20180922080750 50 215 0.0 0.0 0.05 0.14 0.06 93 1017.2
20180922080250 50 215 0.0 0.0 0.04 0.13 0.05 93 1017.3
20180922075750 50 215 0.0 0.0 0.04 0.13 0.05 93 1017.4
20180922075250 50 215 0.0 0.0 0.03 0.12 0.04 93 1017.5
20180922074750 50 215 0.0 0.0 0.03 0.12 0.04 93 1017.5
20180922074250 50 215 0.0 0.0 0.02 0.11 0.03 92 1017.5
20180922073750 49 215 0.0 0.0 0.03 0.11 0.03 92 1017.4
20180922073250 49 215 0.0 0.0 0.03 0.11 0.03 93 1017.2
20180922072751 49 216 0.0 0.0 0.02 0.10 0.02 93 1017.4
20180922072250 49 202 0.0 0.0 0.02 0.10 0.02 93 1017.3
20180922071750 49 202 0.0 0.0 0.02 0.10 0.02 93 1017.3
20180922071250 49 202 0.0 0.0 0.01 0.09 0.01 93 1017.3
20180922070751 49 201 0.0 0.0 0.01 0.09 0.01 93 1017.4
20180922070251 49 202 0.0 0.0 0.01 0.09 0.01 93 1017.4
20180922065751 49 202 0.0 0.0 0.01 0.09 0.01 92 1017.5
20180922065251 49 202 0.0 0.0 0.01 0.09 0.01 92 1017.5
20180922064750 49 203 0.0 0.0 0.01 0.09 0.01 92 1017.3
20180922064250 49 207 0.0 0.0 0.01 0.09 0.01 92 1017.5
20180922063751 49 212 0.0 0.0 0.00 0.08 0.00 92 1017.5
20180922063251 49 212 0.0 0.0 0.00 0.08 0.00 92 1017.7
20180922062751 49 212 0.0 0.0 0.00 0.08 0.00 92 1017.5
20180922062250 49 97 0.0 0.0 0.00 0.08 0.00 92 1017.7
20180922061751 49 97 0.0 0.0 0.00 0.08 0.00 92 1017.7
20180922061251 49 97 0.0 0.0 0.00 0.08 0.00 92 1017.4
20180922060751 49 97 0.0 0.0 0.00 0.08 0.00 92 1017.4
20180922060251 49 95 0.0 0.0 0.00 0.08 0.00 92 1017.5
20180922055751 49 95 0.0 0.0 0.00 0.08 0.00 92 1017.7
20180922055251 49 95 0.0 0.0 0.00 0.08 0.00 92 1017.7
20180922054750 49 95 0.0 0.0 0.00 0.08 0.00 91 1017.7
20180922054251 49 95 0.0 0.0 0.00 0.08 0.00 91 1017.6
20180922053751 49 95 0.0 0.0 0.00 0.08 0.00 91 1017.8
20180922053252 49 95 0.0 0.0 0.00 0.08 0.00 91 1017.8
20180922052751 49 95 0.0 0.0 0.00 0.08 0.00 91 1017.8
20180922052251 49 95 0.0 0.0 0.00 0.08 0.00 91 1017.9
20180922051751 49 95 0.0 0.0 0.00 0.08 0.00 91 1017.8
20180922051252 49 95 0.0 0.0 0.00 0.08 0.00 91 1017.8
20180922050751 49 95 0.0 0.0 0.00 0.08 0.00 91 1017.8
20180922050252 49 82 0.0 0.0 0.00 0.08 0.00 91 1017.8
20180922045751 49 82 0.0 0.0 0.00 0.08 0.00 91 1017.7
20180922045253 49 82 0.0 0.0 0.00 0.08 0.00 91 1017.6
20180922044752 49 82 0.0 0.0 0.00 0.08 0.00 90 1017.6
20180922044252 49 82 0.0 0.0 0.00 0.08 0.00 90 1017.7
20180922043752 49 82 0.0 0.0 0.00 0.08 0.00 89 1017.7
20180922043252 49 82 0.0 0.0 0.00 0.08 0.00 90 1017.7
20180922042752 49 82 0.0 0.0 0.00 0.08 0.00 90 1017.6
20180922042252 49 82 1.0 2.0 0.00 0.08 0.00 89 1017.6
20180922041751 49 69 0.0 0.0 0.00 0.08 0.00 89 1017.7
20180922041252 49 69 0.0 0.0 0.00 0.08 0.00 89 1017.8
20180922040752 49 339 0.0 0.0 0.00 0.08 0.00 89 1017.9
20180922040251 49 277 0.0 0.0 0.00 0.08 0.00 89 1017.9
20180922035752 49 277 0.0 0.0 0.00 0.08 0.00 90 1017.9
20180922035252 49 277 0.0 0.0 0.00 0.08 0.00 90 1018.0
20180922034752 49 277 0.0 0.0 0.00 0.08 0.00 90 1018.0
20180922034252 49 277 0.0 0.0 0.00 0.08 0.00 90 1018.0
20180922033752 49 277 0.0 0.0 0.00 0.08 0.00 90 1018.0
20180922033252 49 277 0.0 0.0 0.00 0.08 0.00 90 1018.0
20180922032753 49 277 0.0 0.0 0.00 0.08 0.00 90 1018.0
20180922032252 49 277 0.0 0.0 0.00 0.08 0.00 89 1018.1
20180922031752 49 277 0.0 0.0 0.00 0.08 0.00 89 1017.9
20180922031253 49 277 0.0 0.0 0.00 0.08 0.00 89 1017.8
20180922030752 49 277 0.0 0.0 0.00 0.08 0.00 89 1017.8
20180922030252 49 277 0.0 0.0 0.00 0.08 0.00 89 1017.8
20180922025753 49 277 0.0 2.0 0.00 0.08 0.00 89 1018.0
20180922025252 49 277 1.0 2.0 0.00 0.08 0.00 89 1018.1
20180922024752 49 277 0.0 0.0 0.00 0.08 0.00 89 1018.1
20180922024252 49 277 0.0 0.0 0.00 0.08 0.00 89 1018.0
20180922023753 49 277 0.0 0.0 0.00 0.08 0.00 88 1018.0
20180922023253 49 277 0.0 0.0 0.00 0.08 0.00 88 1018.1
20180922022753 49 277 0.0 0.0 0.00 0.08 0.00 89 1018.2
20180922022253 49 277 0.0 0.0 0.00 0.08 0.00 89 1018.1
20180922021753 49 277 0.0 0.0 0.00 0.08 0.00 89 1018.2
20180922021253 49 277 0.0 0.0 0.00 0.08 0.00 89 1018.3
20180922020754 49 277 0.0 0.0 0.00 0.08 0.00 89 1018.2
20180922020254 49 277 0.0 0.0 0.00 0.08 0.00 89 1018.0
20180922015753 50 277 0.0 0.0 0.00 0.08 0.00 89 1018.2
20180922015255 50 277 0.0 0.0 0.00 0.08 0.00 89 1018.3
20180922014753 50 277 0.0 0.0 0.00 0.08 0.00 89 1018.3
20180922014255 50 277 0.0 0.0 0.00 0.08 0.00 88 1018.3
20180922013753 50 277 0.0 0.0 0.00 0.08 0.00 89 1018.4
20180922013258 50 277 0.0 0.0 0.00 0.08 0.00 88 1018.5
20180922012754 50 277 0.0 0.0 0.00 0.08 0.00 88 1018.4